Regional Weather Roundup
Issued by NWS

Home | Current Version | Previous Version | Graphics & Text | Print | Product List | Glossary On
Versions: 1 2 3 4 5 6 7 8 9 10 11 12 13 14 15 16 17 18 19 20 21 22 23 24 25 26 27 28 29 30 31 32 33 34 35 36 37 38 39 40 41 42 43 44 45 46 47 48 49 50
000
ASUS43 KLSX 280959
RWRMO

WEATHER SUMMARY FOR MISSOURI
NATIONAL WEATHER SERVICE SPRINGFIELD MO
400 AM CST SUN DEC 28 2014

NOTE: "FAIR" INDICATES FEW OR NO CLOUDS BELOW 12,000 FEET WITH NO
       SIGNIFICANT WEATHER AND/OR OBSTRUCTIONS TO VISIBILITY.
       CURRENT SKY AND/OR WEATHER CONDITIONS ARE NOT AVAILABLE FOR
       CHILLICOTHE AND FARMINGTON.

MOZ001>031-035>038-043-044-053-054-281100-
...NORTHERN AND WESTERN MISSOURI...

CITY           SKY/WX    TMP DP  RH WIND       PRES   REMARKS
KANSAS CTY INT CLEAR     19  17  92 W6        30.22F WCI  11
KANSAS C DTWN  CLEAR     22  16  78 SW3       30.25F
LEE`S SUMMIT   PTCLDY    22  17  81 SW3       30.23F
ST JOSEPH      CLEAR     14  13  95 CALM      30.24F
CHILLICOTHE      N/A     21  17  84 CALM      30.23F
KIRKSVILLE     CLEAR     20  19  96 S3        30.21F

$$
MOZ066>068-077>081-088>096-101>105-281100-
...SOUTHWEST MISSOURI...

CITY           SKY/WX    TMP DP  RH WIND       PRES   REMARKS
SPRINGFIELD    CLOUDY    26  23  88 NW5       30.22F WCI  20
JOPLIN         MOCLDY    22  20  92 CALM      30.25F

$$
MOZ032>034-039>042-045>050-055>058-069>072-281100-
...CENTRAL MISSOURI...

CITY           SKY/WX    TMP DP  RH WIND       PRES   REMARKS
COLUMBIA       CLOUDY    27  22  81 NW7       30.22F WCI  19
JEFFERSON CITY CLOUDY    29  22  75 W6        30.25F WCI  23
ROLLA          CLOUDY    27  23  85 N8        30.19F WCI  19
SEDALIA        CLEAR     23  20  88 W3        30.24F
OSAGE BEACH    CLOUDY    27  19  74 NW5       30.23F WCI  21

$$
MOZ051-052-059>065-281100-
...EAST CENTRAL MISSOURI...

CITY           SKY/WX    TMP DP  RH WIND       PRES   REMARKS
ST LOUIS INTL  CLOUDY    33  25  72 W7        30.22S WCI  27
SPIRIT OF STL  CLOUDY    31  25  78 NW9       30.22S WCI  23
ST CHARLES     CLOUDY    31  25  78 N8        30.23S WCI  23

$$
MOZ072>076-082>087-097>100-106>115-281100-
...SOUTH CENTRAL AND SOUTHEAST MISSOURI...

CITY           SKY/WX    TMP DP  RH WIND       PRES   REMARKS
CAPE GIRARDEAU CLOUDY    36  31  82 N10       30.20S WCI  28
FARMINGTON     CLOUDY    30  27  86 SE10      30.21F WCI  21
POPLAR BLUFF   CLOUDY    36  30  79 N9        30.19F WCI  29
WEST PLAINS    CLOUDY    30  24  78 N8        30.18F WCI  22

$$



USA.gov is the U.S. government's official web portal to all federal, state and local government web resources and services.